[[[{"header":{"parameterUnit":"kt","parameterCategory":2,"dx":1,"dy":1,"la1":30.253999710083008,"la2":30.299108505249023,"lo1":-89.0895004272461,"lo2":-89.04439544677734,"nx":28,"ny":28,"refTime":"2022-09-23T21:00:00:Z","depth":0,"parameterNumber":1,"parameterNumberName":"U-component_of_WINDS"},"data":[-2.4786,-2.4855,-2.4819,-2.4881,-2.486,-2.4897,-2.4899,-2.4897,-2.4887,-2.4927,-2.4944,-2.4915,-2.4892,-2.4904,-2.4921,-2.4908,-2.4921,-2.4971,-2.4948,-2.4752,-2.4722,-2.4694,-2.4677,-2.4972,-2.4973,-2.5158,-2.516,-2.5161,-2.4648,-2.4627,-2.4648,-2.4646,-2.4664,-2.4594,-2.4586,-2.4607,-2.4642,-2.4629,-2.4643,-2.4676,-2.4697,-2.4655,-2.467,-2.4703,-2.4672,-2.471,-2.471,-2.4708,-2.4495,-2.4477,-2.4734,-2.4734,-2.4734,-2.4734,-2.4734,-2.4734,-2.4386,-2.4429,-2.4406,-2.4429,-2.4417,-2.4415,-2.445,-2.4412,-2.4434,-2.4444,-2.4395,-2.4435,-2.4416,-2.4415,-2.4406,-2.4436,-2.4388,-2.4419,-2.4428,-2.4438,-2.4456,-2.4201,-2.4436,-2.4435,-2.4434,-2.4433,-2.4433,0,-2.4186,-2.4153,-2.417,-2.4178,-2.4193,-2.4195,-2.4191,-2.4211,-2.4128,-2.4149,-2.4177,-2.4187,-2.4206,-2.4229,-2.4234,-2.4217,-2.415,-2.4137,-2.4159,-2.4187,-2.4211,-2.4204,-2.3864,-2.4132,-2.4129,-2.4127,-2.4125,-2.4124,-2.3924,-2.3976,-2.3934,-2.3951,-2.394,-2.3969,-2.3979,-2.3901,-2.3916,-2.39,-2.3941,-2.3961,-2.3974,-2.4024,-2.3981,-2.3996,-2.3964,-2.4071,-2.3966,-2.3989,-2.3972,-2.3972,-2.3979,-2.4095,-2.4099,-2.4102,-2.4104,0,-2.3782,-2.3721,-2.379,-2.3742,-2.3732,-2.379,-2.375,-2.3788,-2.3747,-2.3795,-2.3801,-2.3738,-2.3767,-2.3705,-2.3725,-2.3693,-2.3793,-2.3758,-2.3799,-2.3791,-2.3884,-2.3879,-2.4188,-2.4226,-2.3913,-2.3916,-2.3918,0,-2.3538,-2.3608,-2.3515,-2.3558,-2.3633,-2.3554,-2.3631,-2.3604,-2.3585,-2.3621,-2.3531,-2.3568,-2.3483,-2.3511,-2.3463,-2.3533,-2.3534,-2.3516,-2.3504,-2.3528,-2.3531,-2.3539,-2.3527,-2.3466,-2.3465,-2.3464,-2.3462,0,-2.3325,-2.3355,-2.3423,-2.3421,-2.3378,-2.3412,-2.3395,-2.3372,-2.3383,-2.3386,-2.3393,-2.3402,-2.3409,-2.3418,-2.3357,-2.3289,-2.3439,-2.3332,-2.342,-2.3423,-2.3461,-2.3461,-2.3744,-2.346,-2.346,-2.346,-2.3459,0,-2.3121,-2.3124,-2.323,-2.3193,-2.3204,-2.3248,-2.3252,-2.3275,-2.3258,-2.3231,-2.3232,-2.3167,-2.3219,-2.3118,-2.319,-2.312,-2.3132,-2.3117,-2.3122,-2.3128,-2.3019,-2.3194,-2.3465,-2.3494,-2.3127,-2.3124,-2.3122,0,-2.2896,-2.2986,-2.2918,-2.3021,-2.3055,-2.2953,-2.3,-2.2987,-2.2954,-2.2978,-2.294,-2.2969,-2.2881,-2.2881,-2.2924,-2.2889,-2.298,-2.2873,-2.2915,-2.2918,-2.2929,-2.3176,-2.3235,-2.3411,-2.3085,-2.3089,-2.3092,0,-2.2715,-2.266,-2.2683,-2.2678,-2.2646,-2.2673,-2.2727,-2.2737,-2.2757,-2.275,-2.2796,-2.2831,-2.2768,-2.2769,-2.2717,-2.2765,-2.2916,-2.269,-2.2689,-2.2738,-2.306,-2.3116,-2.3146,-2.287,-2.2874,-2.2878,-2.3063,0,-2.2428,-2.2464,-2.2522,-2.2512,-2.2522,-2.2581,-2.2515,-2.2534,-2.2483,-2.2446,-2.251,-2.2482,-2.2494,-2.2508,-2.2458,-2.2587,-2.2557,-2.2488,-2.239,-2.2551,-2.2611,-2.2635,-2.2307,-2.2303,-2.23,-2.2298,0,0,-2.2231,-2.2281,-2.2205,-2.2254,-2.2259,-2.2152,-2.2222,-2.2214,-2.2201,-2.2207,-2.215,-2.2199,-2.2179,-2.2264,-2.2309,-2.2311,-2.233,-2.2276,-2.2474,-2.2494,-2.2512,-2.2577,-2.2603,-2.2293,-2.2292,-2.2291,-2.229,0,-2.2114,-2.2093,-2.2162,-2.2149,-2.2129,-2.2086,-2.2103,-2.2064,-2.2044,-2.2104,-2.2017,-2.2047,-2.2086,-2.2079,-2.208,-2.2262,-2.2198,-2.227,-2.2392,-2.2448,-2.2471,-2.2492,-2.2561,-2.2586,-2.2283,-2.2284,-2.2284,0,-2.1927,-2.1898,-2.1923,-2.1926,-2.1911,-2.1948,-2.1827,-2.187,-2.1896,-2.1779,-2.1841,-2.1817,-2.18,-2.1887,-2.1923,-2.1874,-2.2082,-2.2003,-2.2018,-2.2023,-2.2073,-2.2102,-2.2127,-2.1796,-2.1794,-2.1793,0,0,-2.1835,-2.1867,-2.1812,-2.1896,-2.1892,-2.183,-2.1842,-2.1792,-2.1778,-2.1773,-2.1741,-2.1731,-2.1753,-2.177,-2.1787,-2.1891,-2.1884,-2.1945,-2.1968,-2.1987,-2.2002,-2.2058,-2.2086,-2.1787,-2.1787,-2.1787,0,0,-2.1792,-2.1731,-2.1681,-2.1769,-2.1758,-2.171,-2.1765,-2.1703,-2.1711,-2.1698,-2.1615,-2.1609,-2.1688,-2.1669,-2.1604,-2.1752,-2.1656,-2.167,-2.1763,-2.1791,-2.1814,-2.1819,-2.148,0,0,0,0,0,-2.1638,-2.1738,-2.1693,-2.1698,-2.1701,-2.1735,-2.1735,-2.1669,-2.1602,-2.1647,-2.1611,-2.1539,-2.1617,-2.1558,-2.1565,-2.1639,-2.1718,-2.173,-2.1742,-2.1886,-2.1916,-2.1942,0,0,0,0,0,0,-2.1639,-2.1646,-2.169,-2.1648,-2.1648,-2.1731,-2.1604,-2.1588,-2.1596,-2.1582,-2.1548,-2.1538,-2.1483,-2.155,-2.1557,-2.1629,-2.1477,-2.1723,-2.1733,-2.1743,-2.1897,-2.1921,-2.1942,0,0,0,0,0,-2.164,-2.1645,-2.1668,-2.1646,-2.1646,-2.1582,-2.1599,-2.1586,-2.1591,-2.1535,-2.1522,-2.154,-2.1487,-2.1488,-2.1554,-2.1628,-2.1472,-2.1475,-2.173,-2.1738,-2.1745,-2.1909,0,0,0,0,0,0,-2.1641,-2.1633,-2.1666,-2.1664,-2.1603,-2.1576,-2.1569,-2.1584,-2.1542,-2.153,-2.1522,-2.1511,-2.149,-2.1491,-2.1492,-2.1631,-2.1467,-2.147,-2.1472,-2.1736,-2.1742,-2.1748,0,0,0,0,0,0,-2.163,-2.1632,-2.1665,-2.1615,-2.1606,-2.1571,-2.1565,-2.1611,-2.1543,-2.1531,-2.1521,-2.1518,-2.1488,-2.1493,-2.1494,-2.1569,-2.1464,-2.1467,-2.1469,-2.147,-2.1741,-2.1746,0,0,0,0,0,0,-2.1629,-2.1631,-2.1615,-2.1608,-2.16,-2.1568,-2.161,-2.1618,-2.1499,-2.1535,-2.1486,-2.1481,-2.1493,-2.1492,-2.1496,-2.1571,-2.1569,-2.1464,-2.1466,-2.1467,-2.1468,0,0,0,0,0,0,0,-2.1629,-2.1634,-2.1681,-2.1603,-2.1596,-2.1642,-2.1641,-2.164,-2.1498,-2.1493,-2.1488,-2.1483,-2.1448,-2.1451,-2.1454,-2.1573,0,0,-2.1464,-2.1465,0,0,0,0,0,0,0,0,-2.1632,-2.1633,-2.168,-2.168,-2.1679,-2.1642,-2.1641,-2.1641,-2.1497,-2.1493,-2.1489,-2.1485,-2.1449,-2.1451,-2.1454,0,0,0,0,0,0,0,0,0,0,0,0,0,0,0,-2.168,-2.168,0,-2.1642,-2.1641,-2.1641,-2.1496,-2.1493,-2.1489,-2.1486,-2.145,-2.1452,-2.1454,0,0,0,0,0,0,0,0,0,0,0,0,0,0,0,0,0,0,0,0,0,0,0,0,0,0,0,0,0,0,0,0,0,0,0,0,0,0,0,0,0,0,0,0,0,0,0,0,0,0,0,0,0,0,0,0,0,0,0,0,0,0,0,0,0,0,0,0,0]}],[{"header":{"parameterUnit":"kt","parameterCategory":2,"dx":1,"dy":1,"la1":30.253999710083008,"la2":30.299108505249023,"lo1":-89.0895004272461,"lo2":-89.04439544677734,"nx":28,"ny":28,"refTime":"2022-09-23T21:00:00:Z","depth":0,"parameterNumber":2,"parameterNumberName":"V-component_of_WINDS"},"data":[-2.1642,-2.1691,-2.1715,-2.178,-2.1812,-2.1861,-2.1885,-2.1919,-2.1951,-2.201,-2.2048,-2.2073,-2.2113,-2.2161,-2.2202,-2.2212,-2.2229,-2.2231,-2.2243,-2.2214,-2.2212,-2.221,-2.2201,-2.2233,-2.2234,-2.227,-2.227,-2.2271,-2.1625,-2.1658,-2.1699,-2.1754,-2.1789,-2.1802,-2.1846,-2.1874,-2.1916,-2.1955,-2.1992,-2.2045,-2.2088,-2.2127,-2.2172,-2.2194,-2.2202,-2.2205,-2.2204,-2.2211,-2.2181,-2.2172,-2.2198,-2.2198,-2.2198,-2.2198,-2.2198,-2.2198,-2.1601,-2.1628,-2.1675,-2.1719,-2.1753,-2.1789,-2.1818,-2.185,-2.1889,-2.1939,-2.1956,-2.2003,-2.2044,-2.2107,-2.2132,-2.2169,-2.2169,-2.2178,-2.2181,-2.2184,-2.2185,-2.2135,-2.2176,-2.2176,-2.2176,-2.2176,-2.2176,0,-2.159,-2.1608,-2.1647,-2.1695,-2.1727,-2.1765,-2.1802,-2.1821,-2.1862,-2.1891,-2.1936,-2.1964,-2.202,-2.2064,-2.2109,-2.2133,-2.2148,-2.215,-2.2157,-2.2152,-2.2142,-2.2151,-2.2104,-2.2148,-2.2148,-2.2148,-2.2148,-2.2148,-2.1569,-2.1597,-2.1655,-2.168,-2.1706,-2.1744,-2.1771,-2.1805,-2.1832,-2.1882,-2.1903,-2.1946,-2.1983,-2.2048,-2.2081,-2.2122,-2.2129,-2.2145,-2.2135,-2.213,-2.2133,-2.2132,-2.2136,-2.2146,-2.2146,-2.2147,-2.2147,0,-2.1556,-2.1592,-2.1641,-2.1694,-2.1709,-2.1735,-2.1781,-2.1807,-2.1834,-2.1874,-2.1885,-2.1926,-2.1967,-2.1998,-2.205,-2.2065,-2.211,-2.2115,-2.2098,-2.2101,-2.212,-2.2119,-2.2171,-2.2181,-2.2144,-2.2145,-2.2145,0,-2.1553,-2.1586,-2.1638,-2.1664,-2.1703,-2.1736,-2.1774,-2.18,-2.1836,-2.1868,-2.1889,-2.1918,-2.1952,-2.1986,-2.2008,-2.2049,-2.2058,-2.2073,-2.2078,-2.2072,-2.2071,-2.2087,-2.2087,-2.2086,-2.2086,-2.2086,-2.2086,0,-2.1529,-2.1594,-2.1637,-2.1658,-2.1716,-2.1735,-2.176,-2.18,-2.1825,-2.1862,-2.1879,-2.1918,-2.194,-2.197,-2.1998,-2.1991,-2.2049,-2.2045,-2.2064,-2.2064,-2.2076,-2.2075,-2.2112,-2.2085,-2.2085,-2.2085,-2.2085,0,-2.1532,-2.1571,-2.1626,-2.1677,-2.1692,-2.1718,-2.1762,-2.1792,-2.1831,-2.1847,-2.1876,-2.1893,-2.193,-2.1925,-2.1977,-2.1961,-2.1981,-2.1998,-2.1999,-2.2006,-2.2,-2.202,-2.2049,-2.2055,-2.2011,-2.201,-2.201,0,-2.1498,-2.1562,-2.1591,-2.1642,-2.1676,-2.17,-2.173,-2.1764,-2.1788,-2.182,-2.1845,-2.188,-2.1882,-2.1897,-2.1919,-2.1946,-2.1967,-2.1944,-2.199,-2.1991,-2.1983,-2.201,-2.2008,-2.2039,-2.2002,-2.2003,-2.2004,0,-2.1475,-2.1546,-2.1552,-2.1578,-2.1628,-2.1655,-2.1689,-2.1731,-2.1752,-2.1785,-2.1815,-2.1862,-2.1868,-2.1891,-2.1908,-2.1929,-2.1954,-2.1931,-2.1932,-2.1936,-2.2,-2.1999,-2.2004,-2.1961,-2.1962,-2.1963,-2.1997,0,-2.1477,-2.1512,-2.1531,-2.1582,-2.1608,-2.164,-2.1674,-2.1697,-2.1713,-2.1737,-2.1779,-2.1812,-2.1852,-2.1864,-2.1878,-2.1915,-2.1914,-2.1917,-2.1915,-2.1931,-2.1944,-2.1949,-2.1894,-2.1894,-2.1894,-2.1894,0,0,-2.1436,-2.1487,-2.1516,-2.155,-2.1574,-2.1597,-2.1628,-2.1653,-2.1702,-2.1719,-2.1717,-2.1789,-2.1815,-2.1863,-2.1871,-2.1885,-2.1896,-2.1888,-2.1923,-2.1926,-2.1929,-2.1941,-2.1946,-2.1894,-2.1894,-2.1895,-2.1895,0,-2.1444,-2.1472,-2.1502,-2.1531,-2.1573,-2.1597,-2.1604,-2.1649,-2.1666,-2.1706,-2.1724,-2.1752,-2.1806,-2.1834,-2.1854,-2.1883,-2.1894,-2.1892,-2.1898,-2.1922,-2.1925,-2.1928,-2.1941,-2.1945,-2.1895,-2.1895,-2.1895,0,-2.1429,-2.1464,-2.1481,-2.1535,-2.1562,-2.1595,-2.1602,-2.1634,-2.1659,-2.1679,-2.1719,-2.1741,-2.1778,-2.1818,-2.1836,-2.1835,-2.1891,-2.1877,-2.1877,-2.188,-2.1905,-2.1909,-2.1912,-2.1872,-2.1872,-2.1871,0,0,-2.1431,-2.1463,-2.1509,-2.1539,-2.1555,-2.1591,-2.161,-2.1628,-2.1662,-2.1675,-2.1704,-2.1735,-2.1768,-2.1788,-2.182,-2.1858,-2.1869,-2.1873,-2.1874,-2.1875,-2.1878,-2.1903,-2.1906,-2.1871,-2.1871,-2.1871,0,0,-2.1432,-2.1487,-2.1497,-2.1536,-2.1569,-2.1614,-2.1631,-2.1644,-2.1676,-2.1676,-2.1705,-2.1714,-2.1751,-2.1771,-2.1758,-2.182,-2.1817,-2.182,-2.1806,-2.1807,-2.1808,-2.1803,-2.1768,0,0,0,0,0,-2.1457,-2.148,-2.1489,-2.15,-2.1567,-2.161,-2.1619,-2.1644,-2.1643,-2.1656,-2.1682,-2.1692,-2.1771,-2.176,-2.177,-2.1785,-2.1861,-2.1863,-2.1864,-2.1854,-2.1856,-2.1857,0,0,0,0,0,0,-2.1462,-2.1476,-2.1488,-2.1535,-2.155,-2.1609,-2.1613,-2.162,-2.1642,-2.1644,-2.1686,-2.1693,-2.1714,-2.1756,-2.1765,-2.1779,-2.1765,-2.1862,-2.1863,-2.1865,-2.1855,-2.1856,-2.1857,0,0,0,0,0,-2.1466,-2.1477,-2.1577,-2.1534,-2.1548,-2.1588,-2.1612,-2.1618,-2.1635,-2.1675,-2.1682,-2.1653,-2.1714,-2.1723,-2.1762,-2.1774,-2.1759,-2.1763,-2.1863,-2.1864,-2.1865,-2.1856,0,0,0,0,0,0,-2.1468,-2.1483,-2.158,-2.1585,-2.1527,-2.1585,-2.1595,-2.1617,-2.1666,-2.1673,-2.1643,-2.1643,-2.1714,-2.1721,-2.1728,-2.1771,-2.1755,-2.1758,-2.176,-2.1864,-2.1864,-2.1865,0,0,0,0,0,0,-2.1477,-2.1487,-2.1582,-2.1572,-2.1576,-2.1582,-2.1591,-2.1626,-2.1666,-2.1631,-2.1633,-2.1643,-2.1703,-2.172,-2.1725,-2.1779,-2.1751,-2.1754,-2.1756,-2.1758,-2.1864,-2.1865,0,0,0,0,0,0,-2.1481,-2.149,-2.1571,-2.1574,-2.1577,-2.1635,-2.1613,-2.1679,-2.1659,-2.1628,-2.1658,-2.1657,-2.1701,-2.1708,-2.1723,-2.1775,-2.1778,-2.1751,-2.1753,-2.1755,-2.1756,0,0,0,0,0,0,0,-2.1485,-2.1422,-2.1551,-2.1576,-2.1579,-2.163,-2.1632,-2.1633,-2.1659,-2.1659,-2.1658,-2.1658,-2.1733,-2.1736,-2.174,-2.1771,0,0,-2.1751,-2.1752,0,0,0,0,0,0,0,0,-2.1419,-2.1421,-2.1551,-2.1552,-2.1553,-2.1631,-2.1632,-2.1633,-2.1659,-2.1659,-2.1658,-2.1658,-2.1734,-2.1737,-2.174,0,0,0,0,0,0,0,0,0,0,0,0,0,0,0,-2.1551,-2.1552,0,-2.1631,-2.1632,-2.1632,-2.1659,-2.1659,-2.1658,-2.1658,-2.1735,-2.1737,-2.1739,0,0,0,0,0,0,0,0,0,0,0,0,0,0,0,0,0,0,0,0,0,0,0,0,0,0,0,0,0,0,0,0,0,0,0,0,0,0,0,0,0,0,0,0,0,0,0,0,0,0,0,0,0,0,0,0,0,0,0,0,0,0,0,0,0,0,0,0,0]}]]]